Hourly Data Report for April 30, 2018

KUGAARUK CLIMATE
NUNAVUT
Current Station Operator: ECCC - MSC

68°32'15.060" N
89°47'47.020" W
15.80 m
2303094
71407
NBB

Download Data

Hourly Data (April 2018)
Hourly Data Report for April 30, 2018
TIME
LST
Temp Definition
°C
Dew Point Definition
°C
Rel Hum Definition
%
Precip. Amount Definition
mm

Wind Dir Definition
10's deg

Wind Spd Definition
km/h
Visibility Definition
km
Stn Press Definition
kPa
Hmdx Definition


Wind Chill Definition


Weather Definition


00:00 -19.9 -22.2 82 0.0 25 20   99.56   -30 LegendNANA
01:00 -18.8 -20.9 83 0.0 29 26   99.49   -30 LegendNANA
02:00 -18.3 -20.4 83 0.0 31 25   99.48   -29 LegendNANA
03:00 -18.0 -20.2 83 0.0 29 18   99.50   -27 LegendNANA
04:00 -18.0 -20.4 82 0.0 26 13   99.50   -26 LegendNANA
05:00 -16.7 -19.0 82 0.0 29 17   99.49   -26 LegendNANA
06:00 -16.2 -18.6 81 0.0 30 17   99.50   -25 LegendNANA
07:00 -15.3 -18.0 79 0.0 31 20   99.48   -25 LegendNANA
08:00 -14.8 -17.3 82 0.0 33 30   99.50   -26 LegendNANA
09:00 -14.5 -17.1 81 0.0 32 38   99.50   -27 LegendNANA
10:00 -14.4 -17.2 79 0.0 32 41   99.52   -27 LegendNANA
11:00 -14.3 -17.0 79 0.0 32 41   99.56   -27 LegendNANA
12:00 -13.8 -16.5 80 0.0 31 42   99.62   -26 LegendNANA
13:00 -13.6 -16.0 82 0.0 32 47   99.67   -26 LegendNANA
14:00 -13.6 -15.9 83 0.0 32 44   99.77   -26 LegendNANA
15:00 -13.3 -15.8 81 0.0 32 40   99.83   -25 LegendNANA
16:00 -13.2 -15.7 81 0.0 32 39   99.92   -25 LegendNANA
17:00 -13.4 -15.8 82 0.0 32 38   99.97   -25 LegendNANA
18:00 -13.6 -15.9 83 0.0 33 38   100.05   -25 LegendNANA
19:00 -14.1 -16.4 82 0.2 31 25   100.14   -24 LegendNANA
20:00 -15.1 -17.5 82 0.0 29 14   100.22   -23 LegendNANA
21:00 -15.3 -17.5 83 0.0 29 14   100.27   -23 LegendNANA
22:00 -15.7 -18.0 82 0.0 29 17   100.34   -24 LegendNANA
23:00 -14.5 -16.9 82 0.0 31 28   100.37   -25 LegendNANA

Notes on Data Quality.

Legend

  • E = Estimated
  • M = Missing
  • NA = Not Available*
  • [empty] = Indicates an unobserved value
Date modified: